Weather History for PAHL - December, 2013

Change the Weather History Date:

Saturday, December 28, 2013

  Actual Average Record
Temperature  
Mean Temperature -4 °F -  
Max Temperature 6 °F - - ()
Min Temperature -13 °F - - ()
Degree Days  
Heating Degree Days 68    
Moisture  
Dew Point -13 °F    
Average Humidity 60    
Maximum Humidity 92    
Minimum Humidity 25    
Precipitation  
Precipitation 0.00 in - - ()
Sea Level Pressure  
Sea Level Pressure 30.03 in    
Wind  
Wind Speed 12 mph (ENE)    
Max Wind Speed 18 mph    
Max Gust Speed 25 mph    
Visibility 8 miles    
Events      
T = Trace of Precipitation, MM = Missing Value Source: NWS Daily Summary

Daily Weather History Graph

Daily Weather History Graph

Search for Another Location

Airport or City:

Trip Planner

Search our weather history database for the weather conditions in past years. The results will help you decide how hot, cold, wet, or windy it might be!

Date:

Astronomy

Dec. 28, 2013 Rise Set
Actual Time 11:50 AM AKST 3:04 PM AKST
Civil Twilight 10:16 AM AKST 4:37 PM AKST
Nautical Twilight 9:01 AM AKST 5:52 PM AKST
Astronomical Twilight 7:57 AM AKST 6:56 PM AKST
Moon 6:19 AM AKST 1:18 PM AKST
Length of Visible Light 6h 21m
Length of Day
3h 13m
Waning Crescent, 17% of the Moon is Illuminated
Dec 28
Waning Crescent
Jan 1
New
Jan 7
First Quarter
Jan 15
Full
Jan 23
Last Quarter

Hourly Weather History & Observations

Time (AKST) Temp. Windchill Dew Point Humidity Pressure Visibility Wind Dir Wind Speed Gust Speed Precip Events Conditions
12:16 AM -11.2 °F -30.1 °F -20.2 °F 64% 30.16 in 10.0 mi ENE 10.4 mph - N/A   Clear
12:36 AM -11.2 °F -31.1 °F -20.2 °F 64% 30.15 in 10.0 mi ENE 11.5 mph - N/A   Clear
12:56 AM -11.2 °F -31.1 °F -18.4 °F 70% 30.15 in 10.0 mi ENE 11.5 mph - N/A   Clear
1:16 AM -11.2 °F -31.1 °F -20.2 °F 64% 30.15 in 10.0 mi ENE 11.5 mph - N/A   Clear
1:36 AM -11.2 °F -32.1 °F -20.2 °F 64% 30.14 in 10.0 mi ENE 12.7 mph - N/A   Clear
1:56 AM -11.2 °F -31.1 °F -20.2 °F 64% 30.14 in 10.0 mi ENE 11.5 mph - N/A   Clear
2:16 AM -11.2 °F -31.1 °F -20.2 °F 64% 30.13 in 10.0 mi ENE 11.5 mph 16.1 mph N/A   Clear
2:36 AM -11.2 °F -31.1 °F -20.2 °F 64% 30.12 in 10.0 mi ENE 11.5 mph - N/A   Clear
2:56 AM -11.2 °F -31.1 °F -20.2 °F 64% 30.12 in 10.0 mi ENE 11.5 mph 16.1 mph N/A   Clear
3:16 AM -11.2 °F -31.1 °F -20.2 °F 64% 30.12 in 10.0 mi ENE 11.5 mph - N/A   Clear
3:36 AM -11.2 °F -30.1 °F -20.2 °F 64% 30.11 in 10.0 mi ENE 10.4 mph - N/A   Clear
3:56 AM -11.2 °F -30.1 °F -18.4 °F 70% 30.11 in 10.0 mi ENE 10.4 mph - N/A   Clear
4:16 AM -11.2 °F -30.1 °F -23.8 °F 54% 30.10 in 10.0 mi ENE 10.4 mph - N/A   Clear
4:36 AM -13.0 °F -32.4 °F -22.0 °F 64% 30.10 in 10.0 mi ENE 10.4 mph - N/A   Clear
4:56 AM -13.0 °F -30.0 °F -20.2 °F 70% 30.10 in 10.0 mi ENE 8.1 mph - N/A   Clear
5:16 AM -11.2 °F -30.1 °F -20.2 °F 64% 30.09 in 10.0 mi ENE 10.4 mph - N/A   Clear
5:36 AM -11.2 °F -30.1 °F -20.2 °F 64% 30.08 in 10.0 mi ENE 10.4 mph - N/A   Clear
5:56 AM -9.4 °F -27.9 °F -16.6 °F 71% 30.07 in 10.0 mi ENE 10.4 mph - N/A   Clear
6:16 AM -9.4 °F -29.8 °F -18.4 °F 65% 30.06 in 10.0 mi ENE 12.7 mph - N/A   Clear
6:36 AM -7.6 °F -26.6 °F -18.4 °F 59% 30.06 in 10.0 mi ENE 11.5 mph 18.4 mph N/A   Mostly Cloudy
6:56 AM -5.8 °F -25.2 °F -9.4 °F 84% 30.06 in 10.0 mi ENE 12.7 mph - N/A   Overcast
7:16 AM -5.8 °F -26.0 °F -20.2 °F 50% 30.05 in 10.0 mi ENE 13.8 mph 19.6 mph N/A   Overcast
7:36 AM -4.0 °F -24.5 °F -25.6 °F 35% 30.05 in 10.0 mi ENE 15.0 mph 20.7 mph N/A   Overcast
7:56 AM -2.2 °F -20.7 °F - N/A% 30.04 in 10.0 mi ENE 12.7 mph 21.9 mph N/A   Overcast
8:16 AM -2.2 °F -22.9 °F -27.4 °F 29% 30.04 in 10.0 mi ENE 16.1 mph 23.0 mph N/A   Overcast
8:36 AM -2.2 °F -21.5 °F -25.6 °F 32% 30.04 in 10.0 mi ENE 13.8 mph 23.0 mph N/A   Overcast
8:56 AM -2.2 °F -22.2 °F -20.2 °F 42% 30.03 in 5.0 mi ENE 15.0 mph - N/A   Overcast
9:16 AM -2.2 °F -24.1 °F -16.6 °F 50% 30.02 in 3.0 mi ENE 18.4 mph 23.0 mph N/A   Overcast
9:36 AM -2.2 °F -21.5 °F -14.8 °F 55% 30.03 in 4.0 mi ENE 13.8 mph 20.7 mph N/A   Mostly Cloudy
9:56 AM -2.2 °F -19.9 °F -13.0 °F 60% 30.03 in 4.0 mi ENE 11.5 mph 17.3 mph N/A   Overcast
10:16 AM -0.4 °F -19.2 °F -13.0 °F 55% 30.02 in 5.0 mi ENE 13.8 mph 19.6 mph N/A   Overcast
10:36 AM -0.4 °F -20.5 °F -9.4 °F 66% 30.02 in 3.0 mi ENE 16.1 mph - N/A   Overcast
10:56 AM -0.4 °F -20.5 °F -9.4 °F 66% 30.02 in 5.0 mi ENE 16.1 mph 23.0 mph N/A   Overcast
11:16 AM -0.4 °F -21.7 °F -7.6 °F 72% 30.01 in 6.0 mi ENE 18.4 mph 24.2 mph N/A   Overcast
11:36 AM -0.4 °F -18.4 °F -2.2 °F 92% 30.01 in 10.0 mi ENE 12.7 mph 19.6 mph N/A   Overcast
11:56 AM -0.4 °F -20.5 °F -11.2 °F 60% 30.00 in 8.0 mi ENE 16.1 mph 23.0 mph N/A   Overcast
12:16 PM 1.4 °F -18.2 °F -27.4 °F 25% 30.00 in 3.0 mi ENE 16.1 mph 23.0 mph N/A   Overcast
12:36 PM 1.4 °F -18.8 °F -20.2 °F 36% 30.00 in 5.0 mi ENE 17.3 mph 21.9 mph N/A   Mostly Cloudy
12:56 PM 1.4 °F -18.8 °F -16.6 °F 43% 29.99 in 1.5 mi ENE 17.3 mph 24.2 mph N/A   Overcast
1:16 PM 1.4 °F -17.6 °F -11.2 °F 56% 29.99 in 1.8 mi ENE 15.0 mph 21.9 mph N/A   Overcast
1:36 PM 1.4 °F -18.8 °F -9.4 °F 61% 29.98 in 2.5 mi ENE 17.3 mph 23.0 mph N/A   Overcast
1:56 PM 1.4 °F -18.2 °F -7.6 °F 66% 29.98 in 1.8 mi ENE 16.1 mph 23.0 mph N/A   Overcast
2:16 PM 1.4 °F -17.6 °F -5.8 °F 72% 29.98 in 1.5 mi East 15.0 mph 21.9 mph N/A   Overcast
2:36 PM 1.4 °F -18.8 °F -5.8 °F 72% 29.98 in 1.8 mi ENE 17.3 mph 20.7 mph N/A   Overcast
2:56 PM 1.4 °F -19.4 °F -4.0 °F 78% 29.97 in 1.5 mi ENE 18.4 mph 25.3 mph N/A   Overcast
3:16 PM 3.2 °F -17.1 °F -2.2 °F 78% 29.97 in 1.8 mi ENE 18.4 mph 24.2 mph N/A   Overcast
3:36 PM 3.2 °F -15.9 °F -5.8 °F 66% 29.96 in 2.5 mi ENE 16.1 mph 23.0 mph N/A   Overcast
3:56 PM 3.2 °F -15.3 °F -22.0 °F 30% 29.97 in 2.0 mi ENE 15.0 mph 20.7 mph N/A   Overcast
4:16 PM 3.2 °F -14.6 °F -11.2 °F 51% 29.97 in 6.0 mi ENE 13.8 mph 19.6 mph N/A   Overcast
4:36 PM 3.2 °F -13.9 °F -14.8 °F 43% 29.97 in 10.0 mi ENE 12.7 mph 18.4 mph N/A   Overcast
4:56 PM 3.2 °F -14.6 °F -7.6 °F 61% 29.97 in 10.0 mi ENE 13.8 mph 19.6 mph N/A   Overcast
5:16 PM 3.2 °F -12.2 °F -5.8 °F 66% 29.97 in 10.0 mi ENE 10.4 mph - N/A   Overcast
5:36 PM 3.2 °F -14.6 °F -5.8 °F 66% 29.97 in 10.0 mi ENE 13.8 mph 18.4 mph N/A   Overcast
5:56 PM 3.2 °F -13.1 °F -2.2 °F 78% 29.97 in 10.0 mi ENE 11.5 mph - N/A   Overcast
6:16 PM 5.0 °F -9.1 °F 1.4 °F 85% 29.97 in 10.0 mi ENE 9.2 mph - N/A   Overcast
6:36 PM 5.0 °F -9.1 °F - N/A% 29.97 in 10.0 mi East 9.2 mph - N/A   Overcast
6:56 PM 5.0 °F -10.0 °F -22.0 °F 28% 29.97 in 10.0 mi ENE 10.4 mph - N/A   Overcast
7:16 PM 5.0 °F -8.1 °F -4.0 °F 66% 29.97 in 10.0 mi East 8.1 mph - N/A   Overcast
7:36 PM 5.0 °F -8.1 °F -5.8 °F 61% 29.97 in 8.0 mi East 8.1 mph - N/A   Overcast
7:56 PM 5.0 °F -9.1 °F -11.2 °F 47% 29.97 in 10.0 mi East 9.2 mph - N/A   Overcast
8:16 PM 5.0 °F -9.1 °F -4.0 °F 66% 29.97 in 10.0 mi East 9.2 mph 16.1 mph N/A   Overcast
8:36 PM 6.8 °F -5.9 °F -2.2 °F 67% 29.98 in 10.0 mi East 8.1 mph - N/A   Overcast
8:56 PM 6.8 °F -6.9 °F -0.4 °F 72% 29.98 in 10.0 mi East 9.2 mph - N/A   Overcast
9:16 PM 6.8 °F -6.9 °F 1.4 °F 79% 29.98 in 8.0 mi East 9.2 mph - N/A   Overcast
9:36 PM 6.8 °F -7.8 °F -5.8 °F 56% 29.98 in 5.0 mi East 10.4 mph - N/A   Overcast
9:56 PM 6.8 °F -7.8 °F -22.0 °F 26% 29.98 in 6.0 mi ENE 10.4 mph - N/A   Overcast
10:16 PM 6.8 °F -7.8 °F -4.0 °F 61% 29.98 in 9.0 mi ENE 10.4 mph 16.1 mph N/A   Overcast
10:36 PM 6.8 °F -8.6 °F -9.4 °F 48% 29.98 in 10.0 mi ENE 11.5 mph - N/A   Overcast
10:56 PM 6.8 °F -7.8 °F -5.8 °F 56% 29.98 in 10.0 mi ENE 10.4 mph - N/A   Overcast
11:16 PM 6.8 °F -5.9 °F -4.0 °F 61% 29.99 in 10.0 mi ENE 8.1 mph - N/A   Overcast
11:36 PM 6.8 °F -8.6 °F -2.2 °F 67% 29.99 in 10.0 mi East 11.5 mph - N/A   Overcast
11:56 PM 6.8 °F -9.3 °F -0.4 °F 72% 29.99 in 10.0 mi ENE 12.7 mph - N/A   Overcast